Location: Mascot Post Office (historical)
(40.2645°N, 99.5462°W)
Time: 16:28:54
(UTC+00:00)

ERS-2 - Pass Details

Date: 14 July 2020
Orbit: 493 x 498 km, 98.5° (Epoch: 05 August)

Event Time Altitude Azimuth Distance (km) Brightness Sun altitude
Rises 10:19:28 0° 173° (S) 2,565 5.4 -10.4°
Reaches altitude 10° 10:21:33 10° 177° (S) 1,687 4.5 -10.1°
Maximum altitude 10:25:08 60° 258° (WSW) 570 2.1 -9.6°
Drops below altitude 10° 10:28:44 10° 339° (NNW) 1,699 5.1 -9.1°
Sets 10:30:51 0° 343° (NNW) 2,585 6.1 -8.8°
